#timestamp,LO_Frequency,Hit,StdDev 
1645300815.5,286046993.3,N
1645300835.4,286047001.1,N
1645300855.2,286047001.2,N
1645300875.1,286046998.2,N
1645300876.0,286046998.2,N
1645300895.8,286047003.7,N
1645300915.6,286047001.3,N
1645300935.5,286047005.9,N
1645300955.3,286047007.2,N
1645300975.1,286047010.7,N
1645300995.9,286047009.1,N
1645301015.7,286047015.6,N
1645301035.5,286047010.8,N
1645301055.4,286047013.7,N
1645301075.2,286047013.4,N
1645301095.1,286047016.9,N
1645301096.0,286047016.9,N
1645301115.8,286047014.2,N
1645301135.6,286047020.0,N
1645301155.5,286047020.6,N
1645301175.3,286047026.0,Y
1645301195.2,286047020.5,P
1645301215.9,286047029.5,P
1645301235.7,286047026.4,N
1645301255.6,286047020.7,N
1645301275.4,286047022.6,N
1645301295.3,286047031.5,Y
1645301315.1,286047007.7,P
1645301316.0,286047007.7,N
1645301335.8,286047015.3,N
1645301355.7,286047019.8,Y
1645301375.5,286047007.7,P
1645301395.3,286047005.5,N
1645301415.2,286047005.2,N
1645301435.0,286047006.1,N
1645301435.9,286047006.1,N
1645301455.8,286047002.6,N
1645301475.6,286047000.2,N
1645301495.4,286046994.7,N
1645301515.3,286046988.6,N
1645301535.1,286046987.7,N
1645301555.8,286046990.0,N
1645301575.7,286046992.7,N
1645301595.5,286046985.8,N
1645301615.4,286046993.1,N
1645301635.2,286046988.7,N
1645301655.0,286046994.7,N
1645301655.9,286046994.7,N
1645301675.8,286046997.6,N
1645301695.6,286046994.9,N
1645301715.5,286046990.5,N
1645301735.3,286046990.4,N
1645301755.1,286046987.3,N
1645301775.9,286046980.5,N
1645301795.7,286046986.2,N
1645301815.5,286046986.4,N
1645301835.4,286046982.9,N
1645301855.2,286046985.7,N
1645301875.1,286046985.5,N
1645301876.0,286046985.5,N
1645301895.8,286046994.4,N
1645301915.7,286046998.0,N
1645301935.5,286046992.6,N
1645301955.3,286046995.3,N
1645301975.2,286046996.4,N
1645301995.0,286046997.1,N
1645301995.9,286046997.1,N
1645302015.8,286046990.2,N
1645302035.6,286046987.8,N
1645302055.4,286046984.4,Y
1645302075.3,286046995.3,P
1645302095.1,286046993.0,N
1645302115.9,286046988.6,P
1645302135.7,286046993.2,N
1645302155.5,286046992.9,Y
1645302175.4,286047003.9,P
1645302195.2,286047003.4,N
1645302215.0,286047002.4,N
1645302216.0,286047002.4,N
1645302235.8,286047005.4,N
1645302255.6,286047002.6,N
1645302275.5,286047003.5,N
1645302295.3,286047001.3,N
1645302315.1,286047001.8,N
1645302335.9,286047013.7,Y
1645302355.7,286047014.5,P
1645302375.6,286047004.9,N
1645302395.4,286047002.8,N
1645302415.2,286046997.2,N
1645302435.1,286046996.0,N
1645302436.0,286046996.0,N
1645302455.8,286046998.3,N
1645302475.6,286047005.6,N
1645302495.5,286047007.6,N
1645302515.3,286047005.6,N
1645302535.2,286047006.9,N
1645302555.9,286047008.7,N
1645302575.7,286047004.9,N
1645302595.6,286047005.9,N
1645302615.4,286047006.1,N
1645302635.2,286047010.8,N
1645302655.1,286047005.3,N
1645302656.0,286047005.3,N
1645302675.8,286047008.4,N
1645302695.7,286047016.0,Y
1645302715.5,286047012.2,P
1645302735.3,286047006.1,N
1645302755.2,286047012.5,P
1645302775.0,286047015.8,Y
1645302775.9,286047015.8,P
1645302795.7,286047007.4,N
1645302815.6,286047006.9,N
1645302835.4,286047003.4,N
1645302855.3,286047006.1,N
1645302875.1,286047010.7,N
1645302876.0,286047010.7,N
1645302895.8,286047004.3,N
1645302915.7,286046998.7,N
1645302935.5,286046992.5,N
1645302955.4,286046993.4,N
1645302975.2,286046999.4,N
1645302995.0,286046996.9,N
1645302995.9,286046996.9,N
1645303015.8,286046996.9,N
1645303035.6,286046999.4,N
1645303055.4,286047004.1,N
1645303075.3,286047003.3,N
1645303095.1,286046998.7,N
1645303115.9,286046997.6,N
1645303135.7,286047004.1,N
1645303155.5,286047006.1,N
1645303175.4,286047009.2,N
1645303195.2,286047006.1,N
1645303215.0,286047012.0,N
1645303215.9,286047012.0,N
1645303235.8,286047005.6,N
1645303255.6,286047011.9,N
1645303275.5,286047007.1,N
1645303295.3,286047011.1,N
1645303315.1,286047012.5,N
1645303335.9,286047011.7,N
1645303355.7,286047005.9,N
1645303375.6,286047002.6,N
1645303395.4,286047003.3,N
1645303415.2,286047007.0,N
1645303435.1,286047005.1,N
1645303436.0,286047005.1,N
1645303455.8,286047006.4,N
1645303475.6,286047002.5,N
1645303495.5,286047005.3,N
1645303515.3,286047006.6,N
1645303535.2,286047003.6,N
1645303555.9,286047003.3,N
1645303575.7,286047004.3,N
1645303595.6,286046997.0,N
1645303615.4,286046998.1,N
1645303635.2,286047003.5,N
1645303655.1,286047007.0,N
1645303656.0,286047007.0,N
1645303675.8,286047010.0,N
1645303695.7,286047010.2,N
1645303715.5,286047008.6,N
1645303735.3,286047006.6,N
1645303755.2,286047009.9,N
1645303775.0,286047008.5,N
1645303775.9,286047008.5,N
1645303795.8,286047016.9,Y
1645303815.6,286047011.3,P
1645303835.4,286047008.8,P
1645303855.3,286047000.7,N
1645303875.1,286047004.0,N
1645303895.8,286047003.5,N
1645303915.7,286047001.4,N
1645303935.5,286047004.4,N
1645303955.4,286047005.4,N
1645303975.2,286046998.5,N
1645303995.0,286047004.2,N
1645303995.9,286047004.2,N
1645304015.8,286047003.6,N
1645304035.6,286046998.1,N
1645304055.4,286046997.5,N
1645304075.3,286046997.5,N
1645304095.1,286046999.9,N
1645304115.9,286047010.6,N
1645304135.7,286047004.8,N
1645304155.5,286047010.6,N
1645304175.4,286047013.9,Y
1645304195.2,286047004.3,P
1645304215.0,286047010.5,P
1645304216.0,286047010.5,P
1645304235.8,286047009.4,N
1645304255.6,286047015.6,Y
1645304275.5,286047003.6,P
1645304295.3,286047000.6,N
1645304315.1,286047000.4,N
1645304335.9,286047004.5,N
1645304355.7,286047001.5,N
1645304375.6,286046999.9,N
1645304395.4,286046993.3,N
